[[{"header":{"parameterUnit":"m.s-1","parameterCategory":1,"la1":30.2991,"la2":30.254,"lo1":-89.0895,"lo2":-89.0444,"dy":0.0017,"dx":0.0017,"nx":28,"ny":28,"refTime":"2023-11-16T09:00:00:Z","depth":0,"parameterNumber":2,"parameterNumberName":"U-component_of_WINDS"},"data":[0,0,0,0,0,0,0,0,0,0,0,0,0,0,0,0,0,0,0,0,0,0,0,0,0,0,0,0,0,0,0,0,0,0,0,0,0,0,0,0,0,0,0,0,0,0,0,0,0,0,0,0,0,0,0,0,0,0,-2.1331,-2.1332,0,-2.1415,-2.1416,-2.1417,-2.1382,-2.138,-2.1378,-2.1376,-2.1466,-2.1471,-2.1475,0,0,0,0,0,0,0,0,0,0,0,0,0,-2.1145,-2.1149,-2.1331,-2.1332,-2.1333,-2.1415,-2.1416,-2.1417,-2.1382,-2.1379,-2.1377,-2.1375,-2.1465,-2.147,-2.1475,0,0,0,0,0,0,0,0,0,0,0,0,0,-2.1227,-2.115,-2.1331,-2.1325,-2.1325,-2.1414,-2.1416,-2.1417,-2.1382,-2.1379,-2.1376,-2.1374,-2.1463,-2.147,-2.1476,-2.1577,0,0,-2.1496,-2.1499,0,0,0,0,0,0,0,0,-2.1223,-2.1234,-2.1325,-2.1326,-2.1326,-2.1384,-2.1384,-2.1471,-2.1383,-2.1361,-2.1376,-2.1372,-2.1442,-2.145,-2.1473,-2.1581,-2.1585,-2.1496,-2.15,-2.1503,-2.1505,0,0,0,0,0,0,0,-2.1217,-2.123,-2.1364,-2.1326,-2.1327,-2.132,-2.1328,-2.14,-2.1418,-2.1363,-2.136,-2.137,-2.1442,-2.1466,-2.1474,-2.1586,-2.1496,-2.1502,-2.1506,-2.1508,-2.1783,-2.1787,0,0,0,0,0,0,-2.1211,-2.1226,-2.1361,-2.1367,-2.1266,-2.1326,-2.1335,-2.1369,-2.1417,-2.1421,-2.1373,-2.1369,-2.1457,-2.1467,-2.1478,-2.16,-2.1503,-2.1509,-2.1513,-2.178,-2.1784,-2.1788,0,0,0,0,0,0,-2.1207,-2.1223,-2.1358,-2.1296,-2.1312,-2.1332,-2.1371,-2.1372,-2.1397,-2.1424,-2.1428,-2.1395,-2.1455,-2.1468,-2.1552,-2.1602,-2.1512,-2.1518,-2.1776,-2.1781,-2.1786,-2.1844,0,0,0,0,0,0,-2.1202,-2.1222,-2.1259,-2.1297,-2.1316,-2.143,-2.1374,-2.1376,-2.1407,-2.1402,-2.1446,-2.145,-2.1454,-2.1543,-2.1559,-2.161,-2.1523,-2.1772,-2.1778,-2.1784,-2.1838,-2.1851,-2.1862,0,0,0,0,0,-2.1195,-2.1273,-2.1261,-2.1278,-2.1362,-2.1433,-2.1444,-2.1445,-2.1411,-2.145,-2.1468,-2.1449,-2.1594,-2.1552,-2.1569,-2.1623,-2.1768,-2.1776,-2.1784,-2.1833,-2.1848,-2.1862,0,0,0,0,0,0,-2.1242,-2.1278,-2.1265,-2.1357,-2.1392,-2.1427,-2.1476,-2.1462,-2.1508,-2.1502,-2.1502,-2.1513,-2.16,-2.162,-2.1572,-2.1724,-2.1676,-2.1688,-2.1708,-2.1723,-2.1734,-2.1728,-2.1528,0,0,0,0,0,-2.1263,-2.1316,-2.1345,-2.1423,-2.1441,-2.1456,-2.1486,-2.1484,-2.1521,-2.1536,-2.156,-2.1598,-2.1653,-2.1689,-2.174,-2.184,-2.1851,-2.1886,-2.1898,-2.1908,-2.1918,-2.1975,-2.1991,-2.1813,-2.1813,-2.1813,0,0,-2.1307,-2.1333,-2.1367,-2.1433,-2.146,-2.1517,-2.1468,-2.153,-2.1572,-2.1546,-2.1627,-2.1646,-2.1688,-2.1781,-2.1824,-2.1801,-2.1969,-2.1917,-2.1925,-2.193,-2.1984,-2.2001,-2.2016,-2.1818,-2.1817,-2.1817,0,0,-2.1417,-2.1441,-2.1509,-2.1537,-2.1578,-2.1587,-2.1604,-2.1641,-2.1652,-2.1733,-2.1714,-2.1766,-2.1859,-2.1891,-2.1919,-2.2041,-2.2026,-2.2058,-2.212,-2.2175,-2.2189,-2.2202,-2.2247,-2.2263,-2.2068,-2.2068,-2.2068,0,-2.1467,-2.155,-2.1547,-2.161,-2.1641,-2.1618,-2.1689,-2.1716,-2.1773,-2.1795,-2.1768,-2.1885,-2.1913,-2.2013,-2.2043,-2.2066,-2.2087,-2.2053,-2.2187,-2.22,-2.2211,-2.2255,-2.2272,-2.2072,-2.2071,-2.2071,-2.2071,0,-2.161,-2.1668,-2.1719,-2.1772,-2.1809,-2.1875,-2.1885,-2.1922,-2.1917,-2.1929,-2.2013,-2.2044,-2.2102,-2.2126,-2.2122,-2.2227,-2.2211,-2.2186,-2.2139,-2.2232,-2.2273,-2.2289,-2.2077,-2.2076,-2.2075,-2.2074,0,0,-2.1752,-2.1803,-2.1822,-2.1847,-2.189,-2.1936,-2.2002,-2.2058,-2.2091,-2.213,-2.2187,-2.2267,-2.2244,-2.2276,-2.2275,-2.2323,-2.242,-2.2292,-2.2293,-2.2316,-2.254,-2.256,-2.2579,-2.241,-2.2413,-2.2415,-2.2537,0,-2.1866,-2.1981,-2.1981,-2.2087,-2.2142,-2.2121,-2.2179,-2.2214,-2.2227,-2.2277,-2.2292,-2.2349,-2.2313,-2.2333,-2.2379,-2.2398,-2.2465,-2.239,-2.2465,-2.2468,-2.2456,-2.26,-2.2621,-2.2735,-2.2553,-2.2556,-2.2557,0,-2.2014,-2.2058,-2.2169,-2.2206,-2.2229,-2.2281,-2.2332,-2.2379,-2.2418,-2.2425,-2.2461,-2.2453,-2.2523,-2.2472,-2.257,-2.2518,-2.2549,-2.2563,-2.2568,-2.2576,-2.2519,-2.2614,-2.2771,-2.2788,-2.2582,-2.258,-2.2578,0,-2.2109,-2.2195,-2.2273,-2.2295,-2.2339,-2.2377,-2.2397,-2.2433,-2.2466,-2.2512,-2.2534,-2.2588,-2.2618,-2.266,-2.2668,-2.263,-2.2766,-2.2716,-2.2775,-2.2776,-2.2806,-2.2805,-2.2972,-2.2824,-2.2823,-2.2823,-2.2823,0,-2.2237,-2.2306,-2.2316,-2.2365,-2.2443,-2.2443,-2.2521,-2.2538,-2.257,-2.2623,-2.2609,-2.266,-2.2666,-2.2719,-2.2725,-2.2806,-2.2819,-2.2828,-2.2829,-2.283,-2.2829,-2.2851,-2.2844,-2.2828,-2.2827,-2.2826,-2.2825,0,-2.2356,-2.2365,-2.2449,-2.2484,-2.2494,-2.2551,-2.2581,-2.2629,-2.264,-2.2708,-2.2724,-2.2743,-2.2805,-2.2816,-2.2889,-2.2893,-2.299,-2.2982,-2.2977,-2.2976,-2.3036,-2.3031,-2.3225,-2.3251,-2.3084,-2.3086,-2.3087,0,-2.2437,-2.249,-2.2531,-2.2564,-2.2586,-2.2641,-2.2675,-2.2677,-2.2714,-2.2762,-2.2805,-2.2864,-2.2912,-2.3011,-2.3033,-2.3089,-2.3084,-2.3148,-2.3093,-2.3092,-2.3087,-2.3085,-2.3091,-2.3159,-2.3161,-2.3163,-2.3164,0,-2.2582,-2.2584,-2.2633,-2.2684,-2.2724,-2.2765,-2.2804,-2.2832,-2.284,-2.2882,-2.2944,-2.2981,-2.3055,-2.3115,-2.3171,-2.3194,-2.3182,-2.3181,-2.3198,-2.32,-2.3195,-2.3201,-2.3007,-2.3177,-2.3175,-2.3174,-2.3174,-2.3173,-2.2686,-2.2733,-2.2768,-2.2824,-2.2853,-2.2889,-2.2935,-2.2953,-2.3004,-2.3063,-2.3062,-2.313,-2.3169,-2.3243,-2.327,-2.3325,-2.3304,-2.3329,-2.3335,-2.3342,-2.3348,-2.3185,-2.3335,-2.3334,-2.3334,-2.3334,-2.3333,0,-2.2831,-2.2853,-2.2904,-2.2958,-2.3002,-2.2983,-2.3025,-2.3064,-2.3124,-2.3161,-2.3208,-2.328,-2.3338,-2.3365,-2.3423,-2.3462,-2.3458,-2.3477,-2.3475,-2.3481,-2.3362,-2.3342,-2.348,-2.348,-2.348,-2.348,-2.348,-2.3479,-2.2912,-2.299,-2.2997,-2.309,-2.3112,-2.3178,-2.3203,-2.3238,-2.3267,-2.3348,-2.3396,-2.3412,-2.3445,-2.3506,-2.3559,-2.3566,-2.3589,-2.3611,-2.3615,-2.3504,-2.3489,-2.3475,-2.3457,-2.3616,-2.3616,-2.373,-2.3731,-2.3732]},{"header":{"parameterUnit":"m.s-1","parameterCategory":1,"la1":30.2991,"la2":30.254,"lo1":-89.0895,"lo2":-89.0444,"dy":0.0017,"dx":0.0017,"nx":28,"ny":28,"refTime":"2023-11-16T09:00:00:Z","depth":0,"parameterNumber":3,"parameterNumberName":"V-component_of_WINDS"},"data":[0,0,0,0,0,0,0,0,0,0,0,0,0,0,0,0,0,0,0,0,0,0,0,0,0,0,0,0,0,0,0,0,0,0,0,0,0,0,0,0,0,0,0,0,0,0,0,0,0,0,0,0,0,0,0,0,0,0,-2.0031,-2.0031,0,-2.0022,-2.0021,-2.0021,-1.9976,-1.9975,-1.9974,-1.9973,-1.9964,-1.9965,-1.9965,0,0,0,0,0,0,0,0,0,0,0,0,0,-2.0012,-2.0012,-2.0031,-2.0031,-2.0031,-2.0022,-2.0021,-2.0021,-1.9977,-1.9975,-1.9974,-1.9973,-1.9964,-1.9965,-1.9966,0,0,0,0,0,0,0,0,0,0,0,0,0,-2.0013,-2.0013,-2.0032,-2.0008,-2.0006,-2.0022,-2.0021,-2.0021,-1.9977,-1.9975,-1.9974,-1.9972,-1.9963,-1.9965,-1.9966,-2.0004,0,0,-1.9969,-1.997,0,0,0,0,0,0,0,0,-2.0013,-2.0014,-2.0011,-2.0009,-2.0007,-1.9999,-2.0011,-2.0016,-1.9977,-1.9988,-1.9973,-1.9971,-1.9977,-1.9977,-1.9978,-2.0004,-2.0003,-1.9969,-1.997,-1.997,-1.9971,0,0,0,0,0,0,0,-2.0013,-2.0014,-2.0028,-2.0011,-2.0009,-1.9998,-1.9996,-2.0012,-1.9991,-1.9987,-1.9983,-1.9983,-1.9975,-1.9977,-1.9978,-2.0003,-1.9969,-1.997,-1.9971,-1.9971,-2.0059,-2.0061,0,0,0,0,0,0,-2.0016,-2.0014,-2.0028,-2.0027,-2.0006,-1.9999,-1.9997,-2.0003,-1.9991,-1.9988,-1.9984,-1.9981,-1.9976,-1.9977,-1.9977,-2.0021,-1.997,-1.9971,-1.9972,-2.0057,-2.0059,-2.0061,0,0,0,0,0,0,-2.0016,-2.0018,-2.0028,-2.002,-2.002,-2.0001,-2.0008,-2.0004,-2.0006,-1.9989,-1.9985,-1.999,-1.9975,-1.9976,-1.9998,-2.002,-1.9972,-1.9973,-2.0055,-2.0058,-2.006,-2.011,0,0,0,0,0,0,-2.0016,-2.0018,-2.0033,-2.002,-2.0021,-2.0049,-2.0009,-2.0005,-2.0008,-2.0003,-1.9994,-1.9991,-1.9974,-1.9996,-1.9999,-2.0021,-1.9974,-2.0053,-2.0057,-2.0059,-2.0106,-2.0114,-2.0121,0,0,0,0,0,-2.0015,-2.0047,-2.0033,-2.0035,-2.0039,-2.005,-2.0051,-2.003,-2.001,-2.0024,-2.0013,-1.9991,-2.0017,-1.9999,-2.0001,-2.0024,-2.0052,-2.0056,-2.0059,-2.0103,-2.0112,-2.012,0,0,0,0,0,0,-2.0063,-2.0045,-2.003,-2.0059,-2.0056,-2.0043,-2.006,-2.0041,-2.0045,-2.004,-2.0015,-2.0014,-2.0039,-2.0034,-2.0013,-2.0061,-2.0031,-2.0035,-2.0063,-2.0072,-2.0079,-2.008,-1.9975,0,0,0,0,0,-2.0077,-2.0088,-2.0072,-2.0099,-2.0098,-2.008,-2.0084,-2.0069,-2.0065,-2.0064,-2.0055,-2.0052,-2.006,-2.0066,-2.0072,-2.0105,-2.0102,-2.0122,-2.0129,-2.0135,-2.0139,-2.0156,-2.0165,-2.0074,-2.0073,-2.0073,0,0,-2.0106,-2.0097,-2.0106,-2.0108,-2.0104,-2.0116,-2.0079,-2.0093,-2.0102,-2.0066,-2.0086,-2.0079,-2.0075,-2.0103,-2.0114,-2.0099,-2.0164,-2.014,-2.0145,-2.0146,-2.0161,-2.017,-2.0178,-2.0076,-2.0076,-2.0075,0,0,-2.0165,-2.0159,-2.0181,-2.0178,-2.0173,-2.016,-2.0165,-2.0154,-2.0148,-2.0167,-2.0141,-2.0151,-2.0165,-2.0162,-2.0163,-2.022,-2.02,-2.0223,-2.026,-2.0277,-2.0284,-2.0291,-2.0311,-2.0319,-2.0227,-2.0227,-2.0227,0,-2.0201,-2.0218,-2.0195,-2.0211,-2.0213,-2.018,-2.0202,-2.02,-2.0197,-2.0199,-2.0182,-2.0198,-2.0193,-2.022,-2.0234,-2.0235,-2.0241,-2.0224,-2.0285,-2.0291,-2.0297,-2.0316,-2.0324,-2.023,-2.023,-2.023,-2.0229,0,-2.0263,-2.0275,-2.0294,-2.0291,-2.0295,-2.0314,-2.0294,-2.03,-2.0284,-2.0274,-2.0294,-2.0286,-2.029,-2.0295,-2.028,-2.032,-2.031,-2.0289,-2.0259,-2.0309,-2.0326,-2.0333,-2.0234,-2.0233,-2.0232,-2.0232,0,0,-2.0353,-2.0337,-2.0344,-2.0342,-2.0333,-2.0342,-2.0359,-2.0363,-2.0369,-2.0367,-2.0381,-2.0394,-2.0374,-2.0375,-2.0359,-2.0374,-2.042,-2.0351,-2.0351,-2.0364,-2.0463,-2.0479,-2.0488,-2.0406,-2.0407,-2.0408,-2.0463,0,-2.0409,-2.0437,-2.0417,-2.0449,-2.0459,-2.0428,-2.0443,-2.0439,-2.043,-2.0437,-2.0426,-2.0435,-2.0409,-2.0409,-2.0422,-2.0411,-2.0439,-2.0407,-2.0419,-2.042,-2.0421,-2.0497,-2.0514,-2.0566,-2.047,-2.0471,-2.0472,0,-2.0478,-2.048,-2.0513,-2.0501,-2.0505,-2.0518,-2.052,-2.0527,-2.0522,-2.0514,-2.0515,-2.0495,-2.0511,-2.0481,-2.0503,-2.0481,-2.0485,-2.048,-2.0482,-2.0482,-2.0449,-2.05,-2.0582,-2.059,-2.0482,-2.0482,-2.0481,0,-2.054,-2.055,-2.0571,-2.057,-2.0558,-2.0568,-2.0563,-2.0556,-2.056,-2.0561,-2.0562,-2.0566,-2.0568,-2.0571,-2.0552,-2.0532,-2.0577,-2.0545,-2.057,-2.0571,-2.0582,-2.0581,-2.0666,-2.0584,-2.0583,-2.0583,-2.0583,0,-2.0605,-2.0627,-2.0599,-2.0612,-2.0634,-2.0611,-2.0634,-2.0626,-2.062,-2.0631,-2.0604,-2.0615,-2.059,-2.0598,-2.0584,-2.0604,-2.0605,-2.0599,-2.0595,-2.0602,-2.0603,-2.0604,-2.06,-2.0585,-2.0585,-2.0585,-2.0584,0,-2.0679,-2.0661,-2.0681,-2.0667,-2.0664,-2.0681,-2.0669,-2.0681,-2.0668,-2.0682,-2.0684,-2.0666,-2.0674,-2.0656,-2.0662,-2.0652,-2.0681,-2.0671,-2.0683,-2.068,-2.0706,-2.0704,-2.0795,-2.0806,-2.0717,-2.0718,-2.0718,0,-2.0722,-2.0737,-2.0724,-2.0729,-2.0726,-2.0734,-2.0737,-2.0714,-2.0718,-2.0714,-2.0726,-2.0731,-2.0735,-2.075,-2.0737,-2.0741,-2.0731,-2.0763,-2.0732,-2.0738,-2.0732,-2.0731,-2.0733,-2.0769,-2.0771,-2.0771,-2.0772,0,-2.08,-2.079,-2.0795,-2.0797,-2.0801,-2.0801,-2.08,-2.0805,-2.0781,-2.0787,-2.0795,-2.0797,-2.0803,-2.0809,-2.0811,-2.0806,-2.0785,-2.0782,-2.0788,-2.0795,-2.0801,-2.0799,-2.07,-2.078,-2.0779,-2.0779,-2.0778,-2.0778,-2.0859,-2.0871,-2.0864,-2.087,-2.0867,-2.0866,-2.0876,-2.0864,-2.087,-2.0873,-2.0859,-2.087,-2.0864,-2.0863,-2.086,-2.0869,-2.0855,-2.0864,-2.0866,-2.0869,-2.0873,-2.08,-2.0869,-2.0869,-2.0868,-2.0868,-2.0868,0,-2.0936,-2.0929,-2.0935,-2.0934,-2.0939,-2.0918,-2.0915,-2.0921,-2.0931,-2.0927,-2.093,-2.0939,-2.0945,-2.0933,-2.0936,-2.0946,-2.0936,-2.0947,-2.0947,-2.0946,-2.0885,-2.088,-2.0955,-2.0955,-2.0955,-2.0955,-2.0955,-2.0955,-2.0976,-2.0996,-2.0985,-2.1002,-2.0995,-2.1005,-2.1006,-2.1005,-2.1001,-2.1012,-2.1017,-2.1008,-2.1001,-2.1004,-2.1008,-2.1005,-2.1007,-2.1022,-2.1015,-2.0959,-2.095,-2.0942,-2.0937,-2.1023,-2.1023,-2.1075,-2.1075,-2.1076]}]]